Other Surface Observations
Issued by NWS

Home | Current Version | Previous Version | Text Only | Print | Product List | Glossary On
Versions: 1 2 3 4 5 6 7 8 9 10 11 12 13 14 15 16 17 18 19 20 21 22 23 24 25 26 27 28 29 30 31 32 33 34 35 36 37 38 39 40 41 42 43 44 45 46 47 48 49 50
000
SXUS52 KTAE 192218
OSOTAE
OSOTAE
North Florida/South Alabama/Southwest Georgia Weather Roundup
National Weather Service Tallahassee Florida
500 PM EST FRI DEC 19 2014

Note: "fair" indicates few or no clouds below 12,000 feet with no
significant weather and/or obstructions to visibility.

!FLZ017-115-028-034-025-192300
...North Florida...

CITY           SKY/WX    TMP DP  RH WIND       PRES   REMARKS
TALLAHASSEE    MOCLDY    56  47  71 NW5       30.09R
APALACHICOLA   CLOUDY    61  47  59 E3        30.07R
PERRY          CLOUDY    64  41  42 CALM      30.05F
CROSS CITY       N/A     68  38  33 CALM      30.06F
JACKSONVILLE   MOCLDY    64  45  49 E5        30.07F
$$

!FLZ112-006-005-002-011-192300
...Florida Panhandle...

CITY           SKY/WX    TMP DP  RH WIND       PRES   REMARKS
MARIANNA       CLOUDY    59  41  51 CALM      30.07S
BONIFAY        FAIR      58  40  51 NE5       30.09S
PANAMA CITY NW CLOUDY    53  46  77 NE6       30.06S
TYNDALL AFB    CLOUDY    52  48  87 NE6       30.07F
TYND DRONE APT SHOWER    53  51  93 NE3G20    30.05F
DE FUNIAK SPR  MOCLDY    54  46  75 CALM      30.08S
EGLIN AFB      MOCLDY    53  47  79 N6        30.08S
DESTIN         CLOUDY    54  46  74 NE6       30.07F
HURLBURT       CLOUDY    53  43  69 N7        30.09R
CRESTVIEW      CLOUDY    54  46  74 CALM      30.11R
PENSACOLA      CLOUDY    52  45  77 N5        30.09R
$$

!ALZ063-066-192300
...South Alabama...

CITY           SKY/WX    TMP DP  RH WIND       PRES   REMARKS
DOTHAN         CLOUDY    57  37  47 E3        30.11S
OZARK CAIRNS   CLOUDY    57  37  46 N2        30.09R
FT RUCKER HELI MOCLDY    57  38  48 N3        30.08R
RUCKER HELI 3  MOCLDY    56  39  53 NE2       30.11R
RUCKER HELI 2  MOCLDY    56  41  57 NW3       30.09R
FLORALA APT    CLOUDY    58  40  51 CALM      30.11R
ANDALUSIA      LGT RAIN  61  34  36 CALM      30.10R
TROY           CLOUDY    54  38  54 N5        30.11R
EUFALA         FAIR      55  41  59 CALM      30.09R
MOBILE         RAIN      50  47  89 NE7       30.12R FOG
$$

!GAZ120>161-192300
...Southwest and South Central Georgia...

CITY           SKY/WX    TMP DP  RH WIND       PRES   REMARKS
THOMASVILLE    FAIR      61  45  55 CALM      30.09R
BAINBRIDGE     MOCLDY    61  41  48 CALM      30.08S
MOODY AFB      CLOUDY    63  41  44 CALM      30.07S
VALDOSTA       MOCLDY    61  43  51 CALM      30.08R
MOULTRIE       PTCLDY    61  43  51 CALM      30.09R
BLAKELY        CLOUDY    61  39  44 CALM      30.08F
ALBANY         MOCLDY    58  40  51 CALM      30.10F
TIFTON         FAIR      60  36  41 CALM      30.07S
FITZGERALD     FAIR      62  34  34 CALM      30.10S
CORDELE        FAIR      61  37  41 N3        30.09S
AMERICUS       FAIR      57  34  41 CALM      30.10S
HOMERVILLE     FAIR      63  48  59 SE3       30.06F
$$

!GMZ750-755-770-775-192300
...Coastal and Buoy Obs...

STATION/POSITION TIME  TEMP    WIND        PRES    VSBY  WAVE
                       AIR SEA DIR/SP/G                  HT/PER
                 (UTC) (F)     (DEG/KT/KT) (MB)    (MI)  (FT/S)
KEATON BEACH     2200   58     180/  3/  3 1017.8F
CEDAR KEY        2200   61     290/  1/  2 1018.9R
C TOWER          2200   60      80/ 10/ 10 1017.8S
APALACHICOLA BUO 2200   64 71   90/ 10/ 12 1017.9F         1/ 3
PANAMA CITY BUOY 2123   68 75  110/ 12/ 16 1017.5F         2/ 5
MOBILE BUOY      2200   68 74  120/ 21/ 23 1015.8R         5/ 6
ORANGE BCH AL BU 2200   58 68   20/ 17/ 19 1017.7R         2/ 4
$$



USA.gov is the U.S. government's official web portal to all federal, state and local government web resources and services.